This is the latest recevied weather packets stored in our database for station/object KD2FGL-13. If no packets are shown the sender has not sent any weather packets the latest 10 day(s).
| Time | Temp. | Humidity | Pressure | Rain* | Wind** | Luminosity | Snow |
|---|---|---|---|---|---|---|---|
| 1777723614 | 12.78° C | 60% | 1014.2 hPa | 0 mm | - | - | - |
| 1777722398 | 11.67° C | 62% | 1014.2 hPa | 0 mm | - | - | - |
| 1777721790 | 11.11° C | 62% | 1014.2 hPa | 0 mm | - | - | - |
| 1777721486 | 11.11° C | 62% | 1014.1 hPa | 0 mm | - | - | - |
| 1777721182 | 11.11° C | 62% | 1014.2 hPa | 0 mm | - | - | - |
| 1777720633 | 11.11° C | 62% | 1014.1 hPa | 0 mm | - | - | - |
| 1777720574 | 11.11° C | 62% | 1014.1 hPa | 0 mm | - | - | - |
| 1777720271 | 11.11° C | 62% | 1014.2 hPa | 0 mm | - | - | - |
| 1777719663 | 10.56° C | 62% | 1014 hPa | 0 mm | - | - | - |
| 1777718448 | 11.11° C | 62% | 1013.8 hPa | 0 mm | - | - | - |
| 1777717536 | 11.11° C | 62% | 1013.8 hPa | 0 mm | - | - | - |
| 1777717237 | 11.11° C | 61% | 1013.7 hPa | 0 mm | - | - | - |
| 1777715712 | 11.11° C | 61% | 1014 hPa | 0 mm | - | - | - |
| 1777715104 | 11.11° C | 61% | 1013.9 hPa | 0 mm | - | - | - |
| 1777714193 | 11.11° C | 61% | 1013.6 hPa | 0 mm | - | - | - |
| 1777713889 | 11.11° C | 61% | 1013.6 hPa | 0 mm | - | - | - |
| 1777713585 | 11.11° C | 61% | 1013.7 hPa | 0 mm | - | - | - |
| 1777713281 | 11.11° C | 61% | 1013.5 hPa | 0 mm | - | - | - |
| 1777712977 | 11.11° C | 61% | 1013.6 hPa | 0 mm | - | - | - |
| 1777712065 | 11.11° C | 60% | 1013.9 hPa | 0 mm | - | - | - |
| 1777711761 | 11.11° C | 60% | 1014 hPa | 0 mm | - | - | - |
| 1777711457 | 11.11° C | 60% | 1013.8 hPa | 0 mm | - | - | - |
| 1777710242 | 11.11° C | 60% | 1013.4 hPa | 0 mm | - | - | - |
| 1777709330 | 11.11° C | 60% | 1013.5 hPa | 0 mm | - | - | - |
| 1777709027 | 11.67° C | 60% | 1013.4 hPa | 0 mm | - | - | - |
* Rain since midnight (hover to see other rain measurements)
** Current wind speed in m/s (hover to see current wind gust speed)